Location: El Carrer d�Abaix
(41.5797°N, 2.1791°E)
Time: 04:10:23
(UTC+00:00)

USA 245 - Pass Details

Date: 06 June 2020
Orbit: 269 x 1014 km, 97.9° (Epoch: 01 July)

Event Time Altitude Azimuth Distance (km) Brightness Sun altitude
Exits shadow 20:52:58 34° 144° (SE) 557 2.8 -13.7°
Maximum altitude 20:53:52 62° 76° (ENE) 356 2.2 -13.8°
Drops below altitude 10° 20:56:13 10° 354° (N) 1,147 5.8 -14.1°
Sets 20:57:57 0° 351° (N) 1,932 7.2 -14.3°
